Location: Goheenville
(40.9070°N, 79.3720°W)
Time: 17:37:16
(UTC-04:00)

Meteor 2-10 Rocket - Visible Passes

Search period start: 31 July 2014 00:00
Search period end: 10 August 2014 00:00
Orbit: 735 x 885 km, 81.2° (Epoch: 30 July)

Date Brightness Start Highest point End Pass type
(mag) Time Alt. Az. Time Alt. Az. Time Alt. Az.
31 Jul 4.0 21:54:46 10° NNW 22:00:12 63° W 22:05:22 10° S visible
01 Aug 3.6 21:30:37 10° N 21:36:07 88° W 21:41:21 10° S visible
02 Aug 3.6 21:06:33 10° N 21:12:00 66° ENE 21:17:11 10° SSE visible
02 Aug 6.2 22:50:36 10° NW 22:53:19 14° W 22:55:59 10° WSW visible
03 Aug 5.9 22:25:36 10° NW 22:29:26 20° W 22:33:09 10° SW visible
04 Aug 5.5 22:00:59 10° NNW 22:05:30 28° W 22:09:51 10° SSW visible
05 Aug 4.9 21:36:33 10° NNW 21:41:32 39° W 21:46:18 10° SSW visible
06 Aug 4.3 21:12:16 10° NNW 21:17:30 56° W 21:22:31 10° S visible
07 Aug 3.7 20:48:04 10° NNW 20:53:26 80° W 20:58:34 10° S visible
08 Aug 6.4 22:08:35 10° WNW 22:10:34 12° W 22:12:31 10° WSW visible
09 Aug 6.2 21:43:18 10° NW 21:46:41 18° W 21:50:00 10° SW visible
